This is the latest recevied weather packets stored in our database for station/object HB9TJM-8. If no packets are shown the sender has not sent any weather packets the latest 10 day(s).
| Time | Temp. | Humidity | Pressure | Rain* | Wind** | Luminosity | Snow |
|---|---|---|---|---|---|---|---|
| 1777166768 | 11.11° C | 46% | 1019.9 hPa | 0 mm | - | 0 W/m² | - |
| 1777166460 | 11.11° C | 45% | 1019.4 hPa | 0 mm | - | 0 W/m² | - |
| 1777166152 | 11.67° C | 44% | 1019.8 hPa | 0 mm | - | 0 W/m² | - |
| 1777165845 | 11.67° C | 45% | 1019.8 hPa | 0 mm | - | 0 W/m² | - |
| 1777165538 | 11.11° C | 45% | 1019.8 hPa | 0 mm | - | 0 W/m² | - |
| 1777165230 | 11.67° C | 43% | 1019.6 hPa | 0 mm | - | 0 W/m² | - |
| 1777164923 | 11.11° C | 46% | 1019.6 hPa | 0 mm | - | 0 W/m² | - |
| 1777164616 | 11.67° C | 45% | 1019.7 hPa | 0 mm | - | 0 W/m² | - |
| 1777164308 | 11.67° C | 45% | 1020 hPa | 0 mm | - | 0 W/m² | - |
| 1777164001 | 11.67° C | 45% | 1019.9 hPa | 0 mm | - | 0 W/m² | - |
| 1777163693 | 11.67° C | 44% | 1019.6 hPa | 0 mm | - | 0 W/m² | - |
| 1777163385 | 11.67° C | 45% | 1020 hPa | 0 mm | - | 0 W/m² | - |
| 1777162770 | 12.22° C | 44% | 1019.2 hPa | 0 mm | - | 0 W/m² | - |
| 1777162462 | 11.67° C | 45% | 1019.8 hPa | 0 mm | - | 0 W/m² | - |
| 1777162155 | 11.67° C | 45% | 1019.9 hPa | 0 mm | - | 0 W/m² | - |
| 1777161848 | 11.67° C | 44% | 1019.8 hPa | 0 mm | - | 0 W/m² | - |
| 1777161540 | 11.67° C | 46% | 1019.5 hPa | 0 mm | - | 0 W/m² | - |
| 1777161233 | 11.67° C | 47% | 1019.8 hPa | 0 mm | - | 0 W/m² | - |
| 1777160925 | 11.67° C | 46% | 1019.6 hPa | 0 mm | - | 0 W/m² | - |
| 1777160619 | 11.67° C | 44% | 1019.4 hPa | 0 mm | - | 0 W/m² | - |
| 1777160310 | 11.67° C | 44% | 1019.7 hPa | 0 mm | - | 0 W/m² | - |
| 1777160003 | 11.67° C | 44% | 1019.7 hPa | 0 mm | - | 0 W/m² | - |
| 1777159696 | 11.67° C | 44% | 1019.9 hPa | 0 mm | - | 0 W/m² | - |
| 1777159388 | 11.11° C | 44% | 1019.6 hPa | 0 mm | - | 0 W/m² | - |
| 1777159081 | 11.11° C | 46% | 1019.8 hPa | 0 mm | - | 0 W/m² | - |
* Rain latest hour (hover to see other rain measurements)
** Current wind speed in m/s (hover to see current wind gust speed)